Погода в Аксукенте

Казахстан     42°25′14″N   69°49′43″E
темп.,
°C
ветер,
м/с
пор.,
м/с
влажн.,
%
обл.,
%
осадки,
мм/ч
давл.,
гПа
погр.,
м
16 мая, вс
вс1600:00+18всв1523330 0.0 1012721
03:00+15всв1019380 0.0 1012601
06:00+15всв1119370 0.0 1012561
09:00+17всв1118430 0.0 1013652
12:00+22в1012320 0.0 1013823
15:00+25всв910300 0.0 10131290
18:00+22всв1016330 0.0 1013961
21:00+20всв1220270 0.0 1012775
17 мая, пн
пн1700:00+16в817340 0.0 1013382
03:00+15в715400 0.0 1013246
06:00+15в816360 0.0 1013321
09:00+19в712450 0.0 1014334
12:00+25в88300 0.0 1013669
15:00+27всв88270 0.0 1013919
18:00+26всв610330 0.0 1012675
21:00+19всв614370 0.0 1012243
18 мая, вт
вт1800:00+16в612360 0.0 1012154
03:00+16в511380 0.0 1010138
06:00+15в47380 0.0 101086
09:00+22в47430 0.0 1010234
12:00+29вюв24270 0.0 10091845
15:00+31з35184 0.0 10083855
18:00+30сз13232 0.0 10073118
21:00+21вюв44415 0.0 100834
19 мая, ср
ср1900:00+19в45385 0.0 100849
03:00+18вюв34350 0.0 100741
06:00+17в33344 0.0 100721
09:00+24вюв23362 0.0 1007163
12:00+30зюз22241 0.0 10061061
15:00+31з461934 0.0 10054309
18:00+30сз342648 0.0 1004736
21:00+19в46515 0.0 100673
20 мая, чт
чт2000:00+18вюв33443 0.0 100637
03:00+17вюв33367 0.0 100621
06:00+16вюв333522 0.0 100723
09:00+23юв123794 0.0 1007140
12:00+28сз3328100 0.0 1008843
15:00+30сз232296 0.0 10072139
18:00+30с322668 0.0 10061912
21:00+21с335251 0.0 100841